sat.trackr.live / text

‹ back to catalog

UNKNOWN

NORAD 82432

UNKNOWN UNKNOWN UNKNOWN

§ Identity

Operator
Country
Launch date
Launch site
Launch vehicle
Mass (kg)
RCS (m²)

External: N2YO · Heavens-Above

§ Orbital elements

Epoch: 2026-05-22T02:53:21.830784Z

Period
98.69 min
Inclination
74.0073°
Eccentricity
0.0055910
Mean motion
14.59162160 rev/d
Perigee alt
656.3 km
Apogee alt
735.4 km
Semi-major
7,074.0 km
B*
1.9373e-4
RAAN
34.5209°
Arg perigee
160.3164°
Mean anomaly
200.0178°
Rev number
50,629

§ Raw data

UNKNOWN1 82432U          26142.12039156  .00000902  00000+0  19373-3 0  99972 82432  74.0073  34.5209 0055910 160.3164 200.0178 14.59162160506291

JSON: /api/v1/satellites/82432 · /tle

For live sub-satellite position, see the globe view (requires WebGL).

§ Visibility from observer

Set your observer location to see the next 7 days of passes ≥ 10°. The values pass through the URL so the page stays shareable.

No JS? Fill the form by hand. The geolocation button needs JavaScript.